Regional Weather Roundup
Issued by NWS

Home | Current Version | Previous Version | Graphics & Text | Print | Product List | Glossary On
Versions: 1 2 3 4 5 6 7 8 9 10 11 12 13 14 15 16 17 18 19 20 21 22 23 24 25 26 27
000
ASUS45 KCYS 161310
RWRWY

WYOMING REGIONAL WEATHER ROUNDUP
NATIONAL WEATHER SERVICE CHEYENNE WY
600 AM MST SAT DEC 16 2017

NOTE:  "FAIR" INDICATES FEW OR NO CLOUDS BELOW 12,000 FEET
WITH NO SIGNIFICANT WEATHER AND/OR OBSTRUCTIONS TO VISIBILITY.

WYZ001-161400-
YELLOWSTONE NATIONAL PARK

CITY           SKY/WX    TMP DP  RH WIND       PRES   REMARKS
LK YELLOWSTONE   N/A     20  19  96 CALM      29.84S
W YELLOWSTONE  NOT AVBL

$$
WYZ002>013-054>058-071-098>099-161400-
NORTHERN WYOMING

CITY           SKY/WX    TMP DP  RH WIND       PRES   REMARKS
JACKSON        LGT SNOW  24  22  91 N6        29.83S FOG     WCI  17
CODY           LGT SNOW  30  28  93 N6        29.86R FOG     WCI  24
GREYBULL       CLOUDY    30  20  66 NW6       29.84R WCI  24
WORLAND        CLOUDY    36  26  67 NW6       29.83R WCI  31
SHERIDAN       LGT SNOW  33  32  96 NW7       29.89R FOG     WCI  27
BUFFALO        LGT SNOW  32  27  81 N8        29.88R WCI  25
GILLETTE       CLOUDY    31  22  69 CALM      29.87R
HULETT         CLOUDY    32  28  86 N5        29.88R WCI  27
NEWCASTLE      FAIR      34  19  55 NW12G17   29.81S WCI  25

$$
WYZ014>020-022>026-101>103-161400-
CENTRAL WYOMING

CITY           SKY/WX    TMP DP  RH WIND       PRES   REMARKS
BIG PINEY      LGT SNOW  24  20  84 W5        29.84S FOG     WCI  18
PINEDALE       LGT SNOW  25  23  93 CALM      29.84S
DUBOIS         CLOUDY    28  23  80 NW10      29.78R WCI  19
LANDER         CLOUDY    30  19  63 W10       29.80R WCI  21
RIVERTON       CLOUDY    25  19  78 E6        29.80S WCI  18
CASPER         MOCLDY    31  20  63 N7        29.84R WCI  24
DOUGLAS        FAIR      33  19  56 NW9       29.85R WCI  25

$$
WYZ021-027>030-104>119-161400-
SOUTHERN WYOMING

CITY           SKY/WX    TMP DP  RH WIND       PRES   REMARKS
EVANSTON       MOCLDY    30  23  75 N9        29.82F WCI  22
FORT BRIDGER   CLOUDY    33  27  78 NW9       29.86S WCI  25
ROCK SPRINGS   CLOUDY    29   9  43 NW10      29.85R WCI  20
DIXON          FAIR      18  10  69 CALM      29.89S
RAWLINS        CLOUDY    32  13  45 VRB5      29.84S WCI  27
SARATOGA       PTSUNNY   27  12  54 E10       29.84S WCI  17
LARAMIE        FAIR      31   8  38 SW15      29.80F WCI  20
CHEYENNE       CLOUDY    42   4  20 E6        29.80R
TORRINGTON     FAIR      39  12  33 N12       29.80R WCI  32
PINE BLUFFS    FAIR      30  12  47 MISG      29.81R

$$




USA.gov is the U.S. government's official web portal to all federal, state and local government web resources and services.